K3CHZ Weather Reports


Display with metric or nautical units.
time (UTC)temp
F
wind
direction
speed
MPH
gust
MPH
rain 1hr
in
rain 24hr
in
rain mn
in
humidity
%
barometer
mb
20260505232222 78 193 3.0 7.0 0.00 0.00 0.00 30 1009.1
20260505231720 78 209 5.0 7.0 0.00 0.00 0.00 30 1009.2
20260505231221 78 208 5.0 8.0 0.00 0.00 0.00 30 1009.1
20260505230720 78 241 5.0 8.0 0.00 0.00 0.00 31 1009.2
20260505230221 78 187 3.0 7.0 0.00 0.00 0.00 31 1009.2
20260505225721 78 170 3.0 8.0 0.00 0.00 0.00 32 1009.1
20260505225220 78 199 3.0 8.0 0.00 0.00 0.00 30 1009.2
20260505224720 78 212 2.0 6.0 0.00 0.00 0.00 31 1009.4
20260505224223 79 216 3.0 7.0 0.00 0.00 0.00 31 1009.4
20260505223721 79 197 3.0 8.0 0.00 0.00 0.00 32 1009.3
20260505223221 79 198 3.0 8.0 0.00 0.00 0.00 32 1009.3
20260505222718 79 196 2.0 9.0 0.00 0.00 0.00 31 1009.4
20260505222218 79 220 4.0 9.0 0.00 0.00 0.00 30 1009.3
20260505221717 79 185 3.0 9.0 0.00 0.00 0.00 31 1009.3
20260505221218 79 196 3.0 8.0 0.00 0.00 0.00 32 1009.3
20260505220718 79 178 3.0 8.0 0.00 0.00 0.00 31 1009.3
20260505220219 79 195 5.0 7.0 0.00 0.00 0.00 31 1009.2
20260505215717 79 213 4.0 7.0 0.00 0.00 0.00 31 1009.2
20260505215219 79 221 2.0 8.0 0.00 0.00 0.00 31 1009.2
20260505214719 79 201 4.0 10.0 0.00 0.00 0.00 31 1009.2
20260505214217 79 186 6.0 10.0 0.00 0.00 0.00 31 1009.2
20260505213717 80 190 4.0 7.0 0.00 0.00 0.00 33 1009.1
20260505213218 80 207 3.0 9.0 0.00 0.00 0.00 34 1009.2
20260505212718 80 218 3.0 9.0 0.00 0.00 0.00 32 1009.1
20260505212221 80 206 3.0 9.0 0.00 0.00 0.00 35 1009.1
20260505211721 80 192 2.0 6.0 0.00 0.00 0.00 34 1009.0
20260505211221 80 193 3.0 9.0 0.00 0.00 0.00 33 1009.0
20260505210720 81 203 3.0 9.0 0.00 0.00 0.00 33 1009.0
20260505210221 80 192 1.0 6.0 0.00 0.00 0.00 32 1008.9
20260505205720 80 205 3.0 8.0 0.00 0.00 0.00 31 1008.9
20260505205221 80 190 3.0 8.0 0.00 0.00 0.00 31 1009.0
20260505204721 80 195 3.0 9.0 0.00 0.00 0.00 30 1009.0
20260505204221 81 208 3.0 9.0 0.00 0.00 0.00 29 1009.0
20260505203721 81 208 5.0 9.0 0.00 0.00 0.00 30 1009.0
20260505203222 81 234 3.0 8.0 0.00 0.00 0.00 31 1009.0
20260505202721 81 202 3.0 6.0 0.00 0.00 0.00 31 1009.0
20260505202503 81 184 2.0 8.0 0.00 0.00 0.00 31 1009.0
20260505202004 81 254 1.0 9.0 0.00 0.00 0.00 31 1009.0
20260505201503 81 215 3.0 9.0 0.00 0.00 0.00 31 1009.0
20260505201005 81 195 3.0 9.0 0.00 0.00 0.00 30 1009.1
20260505200218 81 208 5.0 9.0 0.00 0.00 0.00 29 1009.1
20260505195718 81 184 3.0 9.0 0.00 0.00 0.00 30 1009.4
20260505195217 81 213 6.0 9.0 0.00 0.00 0.00 29 1009.4
20260505194718 81 199 4.0 8.0 0.00 0.00 0.00 31 1009.4
20260505194218 81 182 3.0 10.0 0.00 0.00 0.00 30 1009.4
20260505193718 81 189 6.0 10.0 0.00 0.00 0.00 30 1009.5
20260505193218 81 201 3.0 9.0 0.00 0.00 0.00 31 1009.4
20260505192720 81 190 5.0 9.0 0.00 0.00 0.00 31 1009.5
20260505192218 81 210 5.0 9.0 0.00 0.00 0.00 32 1009.6
20260505191720 81 214 4.0 9.0 0.00 0.00 0.00 32 1009.7
20260505191218 81 186 3.0 8.0 0.00 0.00 0.00 32 1009.8
20260505190717 81 175 3.0 8.0 0.00 0.00 0.00 32 1009.8
20260505190218 81 199 3.0 8.0 0.00 0.00 0.00 32 1009.9
20260505185718 81 196 4.0 8.0 0.00 0.00 0.00 31 1010.0
20260505185217 81 198 5.0 9.0 0.00 0.00 0.00 33 1009.9
20260505184718 81 194 3.0 9.0 0.00 0.00 0.00 35 1009.9
20260505184217 81 204 3.0 8.0 0.00 0.00 0.00 32 1010.0
20260505183719 81 204 3.0 8.0 0.00 0.00 0.00 31 1010.0
20260505183218 81 198 4.0 8.0 0.00 0.00 0.00 35 1010.5
20260505182715 81 204 3.0 8.0 0.00 0.00 0.00 32 1010.5
20260505182215 81 220 2.0 7.0 0.00 0.00 0.00 33 1010.5
20260505181715 81 182 3.0 7.0 0.00 0.00 0.00 34 1010.5
20260505181215 80 190 3.0 7.0 0.00 0.00 0.00 34 1010.5
20260505180715 80 222 3.0 6.0 0.00 0.00 0.00 36 1010.6
20260505180216 80 201 1.0 8.0 0.00 0.00 0.00 36 1010.6
20260505175716 79 233 2.0 8.0 0.00 0.00 0.00 39 1010.6
20260505175216 79 196 2.0 6.0 0.00 0.00 0.00 40 1010.6
20260505174715 79 201 2.0 6.0 0.00 0.00 0.00 42 1010.7
20260505174215 79 184 4.0 7.0 0.00 0.00 0.00 43 1010.9
20260505173715 79 156 3.0 7.0 0.00 0.00 0.00 41 1010.9
20260505173215 79 187 3.0 6.0 0.00 0.00 0.00 39 1010.9
20260505172718 79 198 1.0 5.0 0.00 0.00 0.00 40 1010.9
20260505172219 79 218 2.0 6.0 0.00 0.00 0.00 40 1010.9
20260505171718 79 227 2.0 6.0 0.00 0.00 0.00 41 1011.0
20260505171218 79 251 2.0 3.0 0.00 0.00 0.00 41 1011.0
20260505170717 79 187 2.0 9.0 0.00 0.00 0.00 38 1011.1
20260505170218 78 264 1.0 9.0 0.00 0.00 0.00 38 1011.3
20260505165719 78 219 0.0 6.0 0.00 0.00 0.00 36 1011.3
20260505165218 78 223 1.0 6.0 0.00 0.00 0.00 38 1011.3
20260505164717 78 191 3.0 7.0 0.00 0.00 0.00 42 1011.3
20260505164218 78 193 3.0 7.0 0.00 0.00 0.00 40 1011.6
20260505163718 78 171 2.0 7.0 0.00 0.00 0.00 42 1011.6
20260505163217 78 232 2.0 7.0 0.00 0.00 0.00 41 1011.6
20260505162721 78 245 2.0 6.0 0.00 0.00 0.00 40 1011.7
20260505162218 78 213 0.0 6.0 0.00 0.00 0.00 43 1011.8
20260505161719 77 216 2.0 6.0 0.00 0.00 0.00 45 1011.9
20260505161217 77 271 1.0 5.0 0.00 0.00 0.00 43 1011.9
20260505160718 77 197 2.0 5.0 0.00 0.00 0.00 44 1011.9
20260505160218 77 192 2.0 3.0 0.00 0.00 0.00 45 1011.9
20260505153218 76 204 2.0 3.0 0.00 0.00 0.00 46 1012.1
20260505152718 75 233 2.0 6.0 0.00 0.00 0.00 45 1012.0
20260505152219 75 274 2.0 6.0 0.00 0.00 0.00 45 1012.0
20260505151718 75 217 1.0 5.0 0.00 0.00 0.00 46 1011.9
20260505151218 75 150 2.0 5.0 0.00 0.00 0.00 50 1011.9
20260505150718 74 198 1.0 3.0 0.00 0.00 0.00 48 1011.9
20260505150218 74 198 1.0 3.0 0.00 0.00 0.00 48 1012.0
20260505140218 70 200 0.0 2.0 0.00 0.00 0.00 54 1012.1
20260505130221 64 165 0.0 3.0 0.00 0.00 0.00 61 1012.7
20260505124722 62 182 1.0 3.0 0.00 0.00 0.00 65 1012.6
20260505124221 62 182 1.0 3.0 0.00 0.00 0.00 66 1012.6
20260505123723 61 182 0.0 1.0 0.00 0.00 0.00 66 1012.6
20260505123222 61 181 0.0 0.0 0.00 0.00 0.00 67 1012.6
20260505122722 61 181 0.0 1.0 0.00 0.00 0.00 65 1012.5
20260505122221 61 181 0.0 1.0 0.00 0.00 0.00 68 1012.4
20260505121721 61 181 0.0 2.0 0.00 0.00 0.00 68 1012.4
20260505121221 60 181 1.0 3.0 0.00 0.00 0.00 66 1012.4
20260505120723 60 181 1.0 3.0 0.00 0.00 0.00 68 1012.4
20260505120221 59 181 0.0 2.0 0.00 0.00 0.00 70 1012.3
20260505115721 58 180 0.0 1.0 0.00 0.00 0.00 71 1012.3
20260505115222 58 180 0.0 0.0 0.00 0.00 0.00 74 1012.4
20260505114722 58 180 0.0 0.0 0.00 0.00 0.00 73 1012.3
20260505114221 58 180 0.0 2.0 0.00 0.00 0.00 73 1012.3
20260505113721 58 180 0.0 2.0 0.00 0.00 0.00 72 1012.2
20260505113224 58 180 0.0 1.0 0.00 0.00 0.00 74 1012.1
20260505112716 57 180 0.0 0.0 0.00 0.00 0.00 74 1012.1
20260505112215 57 180 0.0 0.0 0.00 0.00 0.00 75 1012.1
20260505111717 57 180 0.0 0.0 0.00 0.00 0.00 74 1012.1
20260505111215 57 180 0.0 0.0 0.00 0.00 0.00 74 1012.0
20260505110717 56 180 0.0 0.0 0.00 0.00 0.00 74 1011.9
20260505110216 56 180 0.0 0.0 0.00 0.00 0.00 76 1011.9
20260505102218 56 180 0.0 0.0 0.00 0.00 0.00 74 1011.4
20260505101721 56 180 0.0 0.0 0.00 0.00 0.00 72 1011.5
20260505101218 56 180 0.0 0.0 0.00 0.00 0.00 74 1011.6
20260505100719 56 180 0.0 0.0 0.00 0.00 0.00 74 1011.4
20260505100218 56 180 0.0 0.0 0.00 0.00 0.00 75 1011.3
20260505095718 57 180 0.0 0.0 0.00 0.00 0.00 73 1011.3
20260505095219 57 180 0.0 0.0 0.00 0.00 0.00 72 1011.3
20260505094718 57 180 0.0 0.0 0.00 0.00 0.00 72 1011.2
20260505094218 57 180 0.0 0.0 0.00 0.00 0.00 71 1011.1
20260505093719 57 180 0.0 0.0 0.00 0.00 0.00 70 1011.1
20260505093220 57 180 0.0 0.0 0.00 0.00 0.00 71 1011.1
20260505092716 57 180 0.0 0.0 0.00 0.00 0.00 70 1011.1
20260505092216 58 180 0.0 0.0 0.00 0.00 0.00 69 1011.1
20260505091716 58 180 0.0 0.0 0.00 0.00 0.00 69 1011.0
20260505091217 58 180 0.0 0.0 0.00 0.00 0.00 70 1011.1
20260505090715 58 180 0.0 2.0 0.00 0.00 0.00 70 1011.1
20260505090215 58 180 0.0 2.0 0.00 0.00 0.00 70 1011.2
20260505085716 58 180 1.0 2.0 0.00 0.00 0.00 69 1011.2
20260505085215 58 180 0.0 0.0 0.00 0.00 0.00 69 1011.2
20260505084716 58 180 0.0 2.0 0.00 0.00 0.00 69 1011.2
20260505084216 58 180 0.0 2.0 0.00 0.00 0.00 69 1011.2
20260505083715 58 180 1.0 2.0 0.00 0.00 0.00 68 1011.1
20260505083216 59 180 1.0 2.0 0.00 0.00 0.00 68 1011.1
20260505082717 59 180 1.0 3.0 0.00 0.00 0.00 68 1011.1
20260505082218 59 180 1.0 3.0 0.00 0.00 0.00 68 1011.1
20260505081717 59 180 0.0 0.0 0.00 0.00 0.00 68 1011.1
20260505081216 59 180 0.0 0.0 0.00 0.00 0.00 67 1011.0
20260505080715 59 180 0.0 2.0 0.00 0.00 0.00 67 1011.0
20260505080217 59 180 0.0 2.0 0.00 0.00 0.00 67 1010.9
20260505075715 59 180 0.0 2.0 0.00 0.00 0.00 67 1010.9
20260505075215 59 180 0.0 2.0 0.00 0.00 0.00 67 1010.9
20260505074715 59 180 0.0 2.0 0.00 0.00 0.00 67 1010.9
20260505074215 59 180 0.0 2.0 0.00 0.00 0.00 67 1010.8
20260505073716 60 180 0.0 0.0 0.00 0.00 0.00 66 1010.8
20260505073215 60 180 0.0 0.0 0.00 0.00 0.00 66 1010.8
20260505072716 60 180 0.0 0.0 0.00 0.00 0.00 66 1010.8
20260505072218 60 180 0.0 2.0 0.00 0.00 0.00 66 1010.7
20260505071718 60 180 0.0 2.0 0.00 0.00 0.00 66 1010.7
20260505071220 60 180 0.0 0.0 0.00 0.00 0.00 66 1010.7
20260505070720 60 180 0.0 0.0 0.00 0.00 0.00 66 1010.7
20260505070219 60 180 0.0 0.0 0.00 0.00 0.00 66 1010.7
20260505065719 60 180 0.0 0.0 0.00 0.00 0.00 66 1010.7
20260505065218 60 180 0.0 0.0 0.00 0.00 0.00 66 1010.6
20260505064718 60 180 0.0 0.0 0.00 0.00 0.00 66 1010.7
20260505064218 60 180 0.0 0.0 0.00 0.00 0.00 66 1010.8
20260505063718 60 180 0.0 0.0 0.00 0.00 0.00 66 1010.8
20260505063218 60 180 0.0 0.0 0.00 0.00 0.00 66 1010.8
20260505062719 60 180 0.0 0.0 0.00 0.00 0.00 65 1010.8
20260505062220 60 180 0.0 0.0 0.00 0.00 0.00 66 1010.8
20260505061720 60 180 0.0 0.0 0.00 0.00 0.00 64 1010.8
20260505061218 60 180 0.0 0.0 0.00 0.00 0.00 64 1010.8
20260505060719 60 180 0.0 0.0 0.00 0.00 0.00 65 1010.9
20260505060218 61 180 0.0 0.0 0.00 0.00 0.00 65 1010.8
20260505055720 61 180 0.0 0.0 0.00 0.00 0.00 63 1010.7
20260505055220 61 180 0.0 0.0 0.00 0.00 0.00 63 1010.8
20260505054719 61 180 0.0 0.0 0.00 0.00 0.00 63 1010.8
20260505054219 61 180 0.0 0.0 0.00 0.00 0.00 63 1010.8
20260505053718 61 180 0.0 0.0 0.00 0.00 0.00 63 1010.9
20260505053220 62 180 0.0 0.0 0.00 0.00 0.00 62 1011.0
20260505052719 62 180 0.0 0.0 0.00 0.00 0.00 62 1010.9
20260505052218 62 180 0.0 0.0 0.00 0.00 0.00 62 1010.9
20260505051719 62 180 0.0 0.0 0.00 0.00 0.00 62 1010.9
20260505051219 62 180 0.0 0.0 0.00 0.00 0.00 62 1011.0
20260505050718 62 180 0.0 0.0 0.00 0.00 0.00 62 1011.1
20260505050219 62 180 0.0 0.0 0.00 0.00 0.00 61 1011.0
20260505041718 63 180 0.0 0.0 0.00 0.00 0.00 60 1010.9
20260505041218 62 180 0.0 0.0 0.00 0.00 0.00 60 1010.9
20260505040722 62 180 0.0 2.0 0.00 0.00 0.00 59 1010.7
20260505040219 62 180 1.0 2.0 0.00 0.00 0.00 59 1010.7
20260505035720 62 180 0.0 0.0 0.00 0.00 0.00 58 1010.7
20260505035218 62 180 0.0 0.0 0.00 0.00 0.00 58 1010.7
20260505034720 63 180 0.0 0.0 0.00 0.00 0.00 58 1010.7
20260505034219 63 180 0.0 0.0 0.00 0.00 0.00 58 1010.8
20260505033719 63 180 0.0 0.0 0.00 0.00 0.00 57 1010.8
20260505033218 63 180 0.0 0.0 0.00 0.00 0.00 57 1010.8
20260505032718 63 180 0.0 0.0 0.00 0.00 0.00 57 1010.9
20260505032219 63 180 0.0 0.0 0.00 0.00 0.00 57 1010.9
20260505031718 63 180 0.0 0.0 0.00 0.00 0.00 57 1010.8
20260505031219 63 180 0.0 0.0 0.00 0.00 0.00 56 1010.8
20260505030721 64 180 0.0 1.0 0.00 0.00 0.00 56 1010.8
20260505030219 64 180 0.0 2.0 0.00 0.00 0.00 55 1010.7
20260505025719 64 180 0.0 2.0 0.00 0.00 0.00 55 1010.7
20260505025218 64 180 1.0 2.0 0.00 0.00 0.00 55 1010.7
20260505024719 63 180 0.0 0.0 0.00 0.00 0.00 55 1010.8
20260505024218 63 180 0.0 0.0 0.00 0.00 0.00 56 1010.8
20260505023719 64 180 0.0 0.0 0.00 0.00 0.00 57 1010.9
20260505023220 64 180 0.0 0.0 0.00 0.00 0.00 56 1010.8
20260505022719 64 180 0.0 0.0 0.00 0.00 0.00 55 1010.8
20260505022218 64 180 0.0 0.0 0.00 0.00 0.00 53 1010.7
20260505021718 64 180 0.0 0.0 0.00 0.00 0.00 53 1010.6
20260505021218 65 180 0.0 0.0 0.00 0.00 0.00 56 1010.6
20260505020718 65 180 0.0 0.0 0.00 0.00 0.00 53 1010.6
20260505020218 65 180 0.0 0.0 0.00 0.00 0.00 51 1010.6
20260505015720 66 180 0.0 0.0 0.00 0.00 0.00 52 1010.6
20260505015219 66 180 0.0 0.0 0.00 0.00 0.00 50 1010.5
20260505014718 66 180 0.0 0.0 0.00 0.00 0.00 50 1010.5
20260505014220 66 180 0.0 0.0 0.00 0.00 0.00 50 1010.3
20260505013719 66 180 0.0 0.0 0.00 0.00 0.00 50 1010.3
20260505013218 66 180 0.0 0.0 0.00 0.00 0.00 50 1010.3
20260505012719 67 180 0.0 0.0 0.00 0.00 0.00 49 1010.3
20260505012222 67 180 0.0 1.0 0.00 0.00 0.00 48 1010.1
20260505011721 67 180 0.0 1.0 0.00 0.00 0.00 48 1010.1
20260505011225 67 180 0.0 1.0 0.00 0.00 0.00 48 1010.1
20260505010721 67 180 0.0 0.0 0.00 0.00 0.00 47 1010.0
20260505010221 67 180 0.0 0.0 0.00 0.00 0.00 47 1010.0
20260505005722 68 180 0.0 0.0 0.00 0.00 0.00 47 1009.9
20260505005221 68 180 0.0 0.0 0.00 0.00 0.00 47 1009.9
20260505004722 68 180 0.0 0.0 0.00 0.00 0.00 46 1010.0
20260505004221 68 180 0.0 0.0 0.00 0.00 0.00 46 1009.9
20260505003722 68 180 0.0 0.0 0.00 0.00 0.00 46 1010.0
20260505003222 69 180 0.0 0.0 0.00 0.00 0.00 45 1009.9
20260505002715 69 180 0.0 0.0 0.00 0.00 0.00 45 1009.9
20260505002216 69 180 0.0 3.0 0.00 0.00 0.00 45 1009.8
20260505001717 69 180 0.0 3.0 0.00 0.00 0.00 44 1009.9
20260505001216 69 180 1.0 3.0 0.00 0.00 0.00 45 1009.8
20260505000716 69 180 1.0 2.0 0.00 0.00 0.00 44 1009.9
20260505000218 69 180 0.0 1.0 0.00 0.00 0.00 44 1009.8
20260504235716 70 180 0.0 1.0 0.00 0.00 0.00 44 1009.8
20260504235216 70 180 0.0 2.0 0.00 0.00 0.00 43 1009.7
20260504234715 70 180 0.0 2.0 0.00 0.00 0.00 43 1009.6
20260504234216 70 180 0.0 2.0 0.00 0.00 0.00 43 1009.6
20260504233716 70 180 0.0 1.0 0.00 0.00 0.00 43 1009.6
20260504233215 70 180 0.0 2.0 0.00 0.00 0.00 42 1009.7
20260504232715 71 180 0.0 3.0 0.00 0.00 0.00 42 1009.6